| time (UTC) | temp C | wind direction | speed KPH | gust KPH | rain 1hr cm | rain 24hr cm | rain mn cm | humidity % | barometer mb |
| 20260504034530 | 10 | 0 | 0.0 | 0.0 | 0.00 | 0.00 | 0.00 | 84 | 1018.4 |
| 20260504033030 | 11 | 0 | 0.0 | 1.6 | 0.00 | 0.00 | 0.00 | 83 | 1018.4 |
| 20260504031531 | 11 | 0 | 0.0 | 1.6 | 0.00 | 0.00 | 0.00 | 81 | 1018.2 |
| 20260504030028 | 11 | 0 | 0.0 | 0.0 | 0.00 | 0.00 | 0.00 | 79 | 1018.2 |
| 20260504024530 | 12 | 0 | 0.0 | 0.0 | 0.00 | 0.00 | 0.00 | 79 | 1018.1 |
| 20260504023030 | 12 | 0 | 0.0 | 1.6 | 0.00 | 0.00 | 0.00 | 76 | 1017.8 |
| 20260504021529 | 12 | 0 | 0.0 | 0.0 | 0.00 | 0.00 | 0.00 | 75 | 1017.6 |
| 20260504020028 | 12 | 0 | 0.0 | 0.0 | 0.00 | 0.00 | 0.00 | 74 | 1017.4 |
| 20260504014528 | 13 | 0 | 0.0 | 4.8 | 0.00 | 0.00 | 0.00 | 71 | 1017.2 |
| 20260504013036 | 14 | 0 | 0.0 | 0.0 | 0.00 | 0.00 | 0.00 | 69 | 1017.1 |
| 20260504011528 | 15 | 0 | 0.0 | 0.0 | 0.00 | 0.00 | 0.00 | 66 | 1016.9 |
| 20260504010029 | 16 | 0 | 0.0 | 0.0 | 0.00 | 0.00 | 0.00 | 62 | 1016.8 |
| 20260504004528 | 16 | 0 | 0.0 | 0.0 | 0.00 | 0.00 | 0.00 | 54 | 1016.6 |
| 20260504003032 | 17 | 0 | 0.0 | 0.0 | 0.00 | 0.00 | 0.00 | 52 | 1016.4 |
| 20260504001530 | 18 | 0 | 0.0 | 0.0 | 0.00 | 0.00 | 0.00 | 46 | 1016.4 |
| 20260504000027 | 19 | 0 | 0.0 | 1.6 | 0.00 | 0.00 | 0.00 | 46 | 1016.4 |
| 20260503234528 | 20 | 0 | 0.0 | 4.8 | 0.00 | 0.00 | 0.00 | 41 | 1016.3 |
| 20260503233035 | 21 | 341 | 0.0 | 8.0 | 0.00 | 0.00 | 0.00 | 38 | 1016.2 |
| 20260503231528 | 21 | 318 | 0.0 | 3.2 | 0.00 | 0.00 | 0.00 | 37 | 1016.3 |
| 20260503230032 | 21 | 0 | 0.0 | 4.8 | 0.00 | 0.00 | 0.00 | 37 | 1016.3 |
| 20260503224531 | 22 | 184 | 1.6 | 6.4 | 0.00 | 0.00 | 0.00 | 34 | 1016.5 |
| 20260503223028 | 22 | 42 | 1.6 | 12.9 | 0.00 | 0.00 | 0.00 | 33 | 1016.4 |
| 20260503221528 | 22 | 144 | 1.6 | 8.0 | 0.00 | 0.00 | 0.00 | 32 | 1016.5 |
| 20260503220028 | 22 | 0 | 0.0 | 9.7 | 0.00 | 0.00 | 0.00 | 31 | 1016.6 |
| 20260503214534 | 22 | 181 | 3.2 | 9.7 | 0.00 | 0.00 | 0.00 | 32 | 1016.7 |
| 20260503213029 | 22 | 235 | 0.0 | 12.9 | 0.00 | 0.00 | 0.00 | 32 | 1016.8 |
| 20260503211533 | 22 | 306 | 1.6 | 8.0 | 0.00 | 0.00 | 0.00 | 31 | 1016.8 |
| 20260503210030 | 22 | 137 | 3.2 | 14.5 | 0.00 | 0.00 | 0.00 | 32 | 1017.0 |
| 20260503204532 | 22 | 157 | 3.2 | 14.5 | 0.00 | 0.00 | 0.00 | 35 | 1017.1 |
| 20260503203030 | 22 | 179 | 1.6 | 8.0 | 0.00 | 0.00 | 0.00 | 33 | 1017.2 |
| 20260503201530 | 22 | 155 | 1.6 | 8.0 | 0.00 | 0.00 | 0.00 | 34 | 1017.4 |
| 20260503200031 | 21 | 207 | 1.6 | 8.0 | 0.00 | 0.00 | 0.00 | 33 | 1017.6 |
| 20260503194526 | 21 | 146 | 1.6 | 9.7 | 0.00 | 0.00 | 0.00 | 37 | 1017.9 |
| 20260503193027 | 21 | 147 | 1.6 | 8.0 | 0.00 | 0.00 | 0.00 | 34 | 1018.1 |
| 20260503191530 | 21 | 278 | 3.2 | 14.5 | 0.00 | 0.00 | 0.00 | 36 | 1018.3 |
| 20260503190041 | 21 | 221 | 1.6 | 8.0 | 0.00 | 0.00 | 0.00 | 36 | 1018.5 |
| 20260503184527 | 20 | 194 | 3.2 | 8.0 | 0.00 | 0.00 | 0.00 | 36 | 1018.7 |
| 20260503183028 | 20 | 103 | 1.6 | 11.3 | 0.00 | 0.00 | 0.00 | 39 | 1019.0 |
| 20260503181528 | 20 | 0 | 0.0 | 8.0 | 0.00 | 0.00 | 0.00 | 40 | 1019.2 |
| 20260503180037 | 20 | 186 | 3.2 | 9.7 | 0.00 | 0.00 | 0.00 | 37 | 1019.3 |
| 20260503174529 | 19 | 300 | 0.0 | 6.4 | 0.00 | 0.00 | 0.00 | 41 | 1019.4 |
| 20260503173028 | 19 | 213 | 4.8 | 14.5 | 0.00 | 0.00 | 0.00 | 41 | 1019.5 |
| 20260503171538 | 18 | 153 | 3.2 | 8.0 | 0.00 | 0.00 | 0.00 | 41 | 1019.7 |
| 20260503081538 | 7 | 0 | 0.0 | 0.0 | 0.00 | 0.23 | 0.00 | 85 | 1017.8 |
| 20260503071529 | 7 | 0 | 0.0 | 1.6 | 0.00 | 0.28 | 0.00 | 87 | 1017.3 |
| 20260503054536 | 7 | 0 | 0.0 | 0.0 | 0.00 | 0.41 | 0.00 | 85 | 1017.1 |
| 20260503053030 | 8 | 0 | 0.0 | 0.0 | 0.00 | 0.41 | 0.00 | 85 | 1017.2 |
| 20260503051530 | 8 | 0 | 0.0 | 0.0 | 0.00 | 0.41 | 0.00 | 84 | 1017.0 |
| 20260503050029 | 8 | 0 | 0.0 | 0.0 | 0.00 | 0.41 | 0.00 | 83 | 1016.8 |
| 20260503044529 | 8 | 0 | 0.0 | 0.0 | 0.00 | 0.41 | 0.00 | 81 | 1016.7 |
| 20260503043031 | 8 | 0 | 0.0 | 0.0 | 0.00 | 0.41 | 0.00 | 81 | 1016.7 |
| 20260503041528 | 9 | 0 | 0.0 | 0.0 | 0.00 | 0.41 | 0.00 | 79 | 1016.7 |
| 20260503040029 | 9 | 0 | 0.0 | 0.0 | 0.00 | 0.41 | 0.00 | 78 | 1016.6 |